This demonstration page uses our WeatherBlox Daily Observations layout. Learn more.

Left ArrowRight Arrow

41.12389, -100.76542

Hourly Observations for March 17, 2020

Temp ( °F °C ) Dew Point ( °F °C ) Humidity (%) Winds ( mph kmh ) Pressure ( in mb ) Visibility ( mi km ) Precip ( " mm )
12:46 am 00:46 Cloudy 35 1.7 30 -1.1 82 82 ENE 5 7 30.37 1028 10 16 0.00 0.00
12:53 am 00:53 Cloudy 35 1.7 30 -1.1 82 82 Calm 30.32 1027 10 16 0.00 0.00
1:53 am 01:53 Cloudy 35 1.7 30 -1.1 82 82 NE 3 6 30.32 1027 10 16 0.00 0.00
2:53 am 02:53 Cloudy 35 1.7 30 -1.1 82 82 Calm 30.32 1027 10 16 0.00 0.00
3:53 am 03:53 Cloudy 35 1.7 29 -1.7 78 78 Calm 30.31 1026 10 16 0.00 0.00
4:26 am 04:26 Cloudy 34 1.1 29 -1.7 82 82 SSE 3 6 30.34 1027 10 16 0.00 0.00
4:53 am 04:53 Cloudy 34 1.1 30 -1.1 85 85 Calm 30.29 1026 10 16 0.00 0.00
5:53 am 05:53 Cloudy 34 1.1 30 -1.1 85 85 S 3 6 30.28 1026 10 16 0.00 0.00
6:26 am 06:26 Cloudy 34 1.1 30 -1.1 85 85 S 5 7 30.31 1026 10 16 0.00 0.00
6:53 am 06:53 Cloudy 34 1.1 30 -1.1 85 85 S 3 6 30.27 1025 10 16 0.00 0.00
7:08 am 07:08 Cloudy 34 1.1 30 -1.1 85 85 SSE 6 9 30.30 1026 10 16 0.00 0.00
7:53 am 07:53 Cloudy 34 1.1 30 -1.1 85 85 S 6 9 30.26 1025 10 16 0.00 0.00
8:53 am 08:53 Cloudy 35 1.7 30 -1.1 82 82 SSW 10 17 30.26 1025 10 16 0.00 0.00
9:02 am 09:02 Cloudy 35 1.7 30 -1.1 82 82 S 8 13 30.29 1026 10 16 0.00 0.00
9:53 am 09:53 Cloudy 35 1.7 31 -0.6 85 85 S 9 15 30.25 1025 10 16 0.00 0.00
10:12 am 10:12 Cloudy 36 2.2 31 -0.6 82 82 SSW 9 15 30.28 1025 10 16 0.00 0.00
10:53 am 10:53 Cloudy 36 2.2 31 -0.6 82 82 S 9 15 30.23 1024 10 16 0.00 0.00
11:48 am 11:48 Cloudy 37 3 32 0 81 81 S 13 20 30.22 1023 10 16 0.00 0.00
11:53 am 11:53 Cloudy 38 3.3 32 0 79 79 S 14 22 30.19 1023 10 16 0.00 0.00
12:37 pm 12:37 Cloudy 40 4.4 32 0 73 73 S 13 20 30.17 1022 10 16 0.00 0.00
12:53 pm 12:53 Cloudy 40 4.4 32 0 73 73 SSW 16 26 30.15 1021 10 16 0.00 0.00
1:03 pm 13:03 Cloudy 40 4.4 32 0 73 73 SSW 18 30 30.15 1021 10 16 0.00 0.00
1:53 pm 13:53 Cloudy 39 3.9 32 0 76 76 S 20 31 30.12 1020 10 16 0.00 0.00
2:53 pm 14:53 Cloudy 40 4.4 33 0.6 77 77 S 14 22 30.09 1019 10 16 0.00 0.00
3:53 pm 15:53 Cloudy 40 4.4 33 0.6 77 77 S 16 26 30.05 1018 10 16 0.00 0.00
4:33 pm 16:33 Cloudy 40 4.4 34 1.1 79 79 S 16 26 30.05 1018 10 16 0.00 0.00
4:53 pm 16:53 Cloudy 40 4.4 34 1.1 79 79 S 18 30 30.03 1017 10 16 0.00 0.00
5:53 pm 17:53 Cloudy 40 4.4 34 1.1 79 79 S 17 28 30.00 1016 10 16 0.00 0.00
6:44 pm 18:44 Cloudy 40 4.4 34 1.1 79 79 S 10 17 30.00 1016 10 16 0.00 0.00
6:53 pm 18:53 Cloudy 40 4.4 34 1.1 79 79 S 9 15 30.00 1016 10 16 0.00 0.00
7:03 pm 19:03 Cloudy 39 3.9 34 1.1 82 82 S 12 19 30.01 1016 10 16 0.00 0.00
7:53 pm 19:53 Cloudy 39 3.9 34 1.1 82 82 S 12 19 30.00 1016 10 16 0.00 0.00
8:53 pm 20:53 Cloudy 38 3.3 35 1.7 89 89 S 9 15 29.98 1015 10 16 0.00 0.00
9:53 pm 21:53 Cloudy 38 3.3 35 1.7 89 89 S 12 19 29.98 1015 10 16 0.00 0.00
10:53 pm 22:53 Cloudy 38 3.3 35 1.7 89 89 S 10 17 29.96 1015 10 16 0.00 0.00
11:53 pm 23:53 Cloudy 38 3.3 36 2.2 93 93 S 8 13 29.95 1014 10 16 0.00 0.00

Powered by AerisWeather